Regional Weather Roundup
Issued by NWS Midland/Odessa, TX

Skip options and go directly to product.
Home | Oldest Version | Previous Version | Current Version | All | Text Only | Save Text | Print | Product List | Glossary Off

Skip product version selection by date and time.   

893
ASUS44 KMAF 021610
RWRMAF
MIDLAND AREA WEATHER ROUNDUP
NATIONAL WEATHER SERVICE MIDLAND TX
1000 AM CST MON MAR 02 2015

...IN SOUTHWEST TEXAS AND SOUTHEAST NEW MEXICO...

CITY           SKY/WX    TMP DP  RH WIND       PRES   REMARKS
ALPINE         NOT AVBL
ANDREWS        CLOUDY    31  31 100 E9        30.31F FOG     WCI  23
ARTESIA        CLOUDY    34  34 100 S13       30.28S FOG     WCI  25
BIG SPRING     NOT AVBL
CARLSBAD       CLOUDY    34  32  92 SE9       30.27F FOG     WCI  27
DRYDEN           N/A     40  37  89 NE9       30.30R WCI  34
FORT STOCKTON  FOG       33  33 100 NE7       30.31S VSB 1/4 WCI  27
GUAD PASS      NOT AVBL
HOBBS          CLOUDY    32  32 100 E7        30.28S FOG     WCI  26
MARFA          PTSUNNY   46  36  66 E7        30.23S
MIDLAND AIRPK  CLOUDY    34  34 100 E8        30.33  FOG     WCI  27
MIDLAND INTL   FOG       32  32 100 E10       30.31F VSB 1   WCI  24
ODESSA         CLOUDY    32  30  92 E10       30.31S FOG     WCI  24
PECOS          CLOUDY    34  33  96 E8        30.31F FOG     WCI  27
PRESIDIO       FAIR      53  40  62 NE12G17   30.20S
SEMINOLE       NOT AVBL
SNYDER         CLOUDY    28  28 100 NE3       30.38  FOG
WINK           CLOUDY    35  30  82 E10       30.29F WCI  27
$$
...OTHER STATIONS IN TEXAS...

CITY           SKY/WX    TMP DP  RH WIND       PRES   REMARKS
ABILENE        CLOUDY    30  28  92 N7        30.38R FOG     WCI  23
AMARILLO       FOG       28  27  96 S13       30.27F VSB 1/2 WCI  17
AUSTIN         CLOUDY    41  39  93 N14       30.35S WCI  33
BROWNSVILLE    CLOUDY    55  54  96 N8        30.26R FOG
CORPUS CHRISTI CLOUDY    47  46  97 N12       30.29R FOG
DALLAS FTW     DRIZZLE   35  33  92 N10       30.39S FOG     WCI  27
DEL RIO        CLOUDY    43  41  93 NW8       30.33S FOG     WCI  38
EL PASO        CLOUDY    54  32  43 S9        30.09R
HOUSTON INT    FOG       50  49  96 N6        30.31R VSB 1/2
LUBBOCK        FOG       28  27  93 E10       30.29F VSB 3/4 WCI  19
SAN ANGELO     CLOUDY    35  33  92 NE7       30.35S FOG     WCI  29
SAN ANTONIO    CLOUDY    44  40  85 N12       30.31S WCI  38
WACO           CLOUDY    38  36  92 N12       30.38F FOG     WCI  30
WICHITA FALLS  NOT AVBL
$$
...OTHER LOCATIONS IN NEW MEXICO...

CITY           SKY/WX    TMP DP  RH WIND       PRES   REMARKS
ALAMAGORDO     CLOUDY    64  32  29 S21       30.07S
ALBUQUERQUE    PTSUNNY   37  30  75 N8        30.06R WCI  31
CANNON AFB     FOG       28  28  99 S8        30.23F VSB 1/4 WCI  20
CLOVIS         CLOUDY    28  27  93 S9        30.23F VSB 3/4 WCI  20
HOLLOMAN AFB   CLOUDY    56  34  44 S13       30.05F
ROSWELL        FOG       33  31  92 S14       30.26S VSB 3/4 WCI  23
RUIDOSO        LGT RAIN  34  34 100 SE8       30.15F VSB 1/2 WCI  27
SANTA FE       PTSUNNY   31  24  75 S13       30.09R WCI  21
TRUTH OR CONSE CLOUDY    58  27  30 S10       30.03S
TUCUMCARI      CLOUDY    32  29  88 S12       30.22R WCI  23
$$

USA.gov is the U.S. government's official web portal to all federal, state and local government web resources and services.